TimeEDT,TemperatureF,Dew PointF,Humidity,Sea Level PressureIn,VisibilityMPH,Wind Direction,Wind SpeedMPH,Gust SpeedMPH,PrecipitationIn,Events,Conditions,WindDirDegrees,DateUTC
12:53 AM,70.0,57.9,65,29.92,10.0,West,4.6,-,N/A,,Clear,280,2013-05-16 04:53:00
1:53 AM,66.9,57.0,70,29.91,10.0,West,3.5,-,N/A,,Clear,280,2013-05-16 05:53:00
2:53 AM,66.9,54.0,63,29.89,10.0,NW,5.8,-,N/A,,Clear,310,2013-05-16 06:53:00
3:53 AM,71.1,50.0,47,29.88,10.0,West,6.9,-,N/A,,Clear,280,2013-05-16 07:53:00
4:53 AM,66.9,48.9,52,29.90,10.0,West,5.8,-,N/A,,Clear,270,2013-05-16 08:53:00
5:53 AM,64.9,48.0,54,29.91,10.0,WSW,5.8,-,N/A,,Clear,250,2013-05-16 09:53:00
6:53 AM,66.9,48.0,51,29.93,10.0,West,6.9,-,N/A,,Clear,260,2013-05-16 10:53:00
7:53 AM,68.0,51.1,55,29.95,10.0,West,5.8,-,N/A,,Clear,270,2013-05-16 11:53:00
8:53 AM,72.0,53.1,51,29.96,10.0,West,5.8,-,N/A,,Clear,260,2013-05-16 12:53:00
9:53 AM,77.0,55.0,47,29.97,10.0,West,6.9,-,N/A,,Clear,270,2013-05-16 13:53:00
10:53 AM,78.1,54.0,43,29.98,10.0,West,8.1,-,N/A,,Clear,270,2013-05-16 14:53:00
11:53 AM,79.0,52.0,39,29.98,10.0,West,10.4,-,N/A,,Clear,260,2013-05-16 15:53:00
12:53 PM,80.1,53.1,39,29.96,10.0,West,9.2,-,N/A,,Clear,280,2013-05-16 16:53:00
1:53 PM,79.0,53.1,40,29.96,10.0,WSW,8.1,-,N/A,,Clear,250,2013-05-16 17:53:00
2:53 PM,81.0,57.0,44,29.95,10.0,SW,10.4,-,N/A,,Clear,230,2013-05-16 18:53:00
3:53 PM,80.1,55.9,43,29.93,10.0,South,9.2,-,N/A,,Clear,190,2013-05-16 19:53:00
4:53 PM,77.0,57.0,50,29.92,10.0,SSW,5.8,-,N/A,,Clear,200,2013-05-16 20:53:00
6:53 PM,73.9,57.9,57,29.92,10.0,SW,4.6,-,N/A,,Clear,230,2013-05-16 22:53:00
7:53 PM,73.9,60.1,62,29.94,10.0,Calm,Calm,-,N/A,,Clear,0,2013-05-16 23:53:00
8:53 PM,70.0,60.1,71,29.96,10.0,Calm,Calm,-,N/A,,Clear,0,2013-05-17 00:53:00
9:53 PM,66.9,59.0,76,29.97,10.0,Calm,Calm,-,N/A,,Clear,0,2013-05-17 01:53:00
10:53 PM,66.9,59.0,76,29.99,10.0,SSW,3.5,-,N/A,,Clear,200,2013-05-17 02:53:00
11:53 PM,66.0,59.0,78,29.98,10.0,Calm,Calm,-,N/A,,Clear,0,2013-05-17 03:53:00